EW7906 Weather Reports


time (UTC)temp
C
wind
direction
speed
KPH
gust
KPH
rain 1hr
cm
rain 24hr
cm
rain mn
cm
humidity
%
barometer
mb
20260506103848 37 185 0.0 0.0 0.00 0.00 0.00 4 1008.3
20260506103552 37 185 0.0 0.0 0.00 0.00 0.00 4 1008.2
20260506102819 37 185 0.0 0.0 0.00 0.00 0.00 4 1008.2
20260506102319 37 185 0.0 0.0 0.00 0.00 0.00 4 1008.2
20260506102030 37 185 0.0 6.4 0.00 0.00 0.00 4 1008.2
20260506101234 37 185 0.0 6.4 0.00 0.00 0.00 5 1008.2
20260506101000 37 139 0.0 3.2 0.00 0.00 0.00 5 1008.1
20260506100208 37 232 0.0 3.2 0.00 0.00 0.00 7 1008.0
20260506095659 37 232 0.0 9.7 0.00 0.00 0.00 7 1008.0
20260506095156 37 232 0.0 9.7 0.00 0.00 0.00 9 1007.9
20260506094648 37 168 1.6 11.3 0.00 0.00 0.00 10 1007.8
20260506094148 37 139 4.8 11.3 0.00 0.00 0.00 9 1007.8
20260506093646 37 195 1.6 8.0 0.00 0.00 0.00 7 1007.7
20260506093416 37 187 1.6 8.0 0.00 0.00 0.00 5 1007.7
20260506092644 37 168 0.0 8.0 0.00 0.00 0.00 3 1007.7
20260506092144 37 180 0.0 1.6 0.00 0.00 0.00 2 1007.6
20260506091643 37 180 0.0 12.9 0.00 0.00 0.00 2 1007.5
20260506091143 37 180 1.6 12.9 0.00 0.00 0.00 1 1007.4
20260506090915 37 160 0.0 12.9 0.00 0.00 0.00 1 1007.3
20260506090127 37 133 6.4 12.9 0.00 0.00 0.00 100 1007.2
20260506085605 37 109 0.0 0.0 0.00 0.00 0.00 100 1007.2
20260506085039 37 109 0.0 8.0 0.00 0.00 0.00 100 1007.2
20260506084528 37 109 0.0 8.0 0.00 0.00 0.00 100 1007.3
20260506084022 37 118 3.2 14.5 0.00 0.00 0.00 100 1007.2
20260506083514 37 164 4.8 14.5 0.00 0.00 0.00 100 1007.2
20260506083010 37 156 3.2 16.1 0.00 0.00 0.00 100 1007.2
20260506082509 37 194 6.4 19.3 0.00 0.00 0.00 100 1007.2
20260506082009 37 175 6.4 19.3 0.00 0.00 0.00 100 1007.2
20260506081506 37 172 4.8 9.7 0.00 0.00 0.00 100 1007.2
20260506080959 37 42 0.0 11.3 0.00 0.00 0.00 100 1007.2
20260506080450 37 154 3.2 11.3 0.00 0.00 0.00 100 1007.2
20260506073445 37 54 6.4 14.5 0.00 0.00 0.00 100 1007.5
20260506072944 37 146 0.0 14.5 0.00 0.00 0.00 100 1007.6
20260506072715 37 146 6.4 17.7 0.00 0.00 0.00 100 1007.6
20260506071944 37 80 0.0 17.7 0.00 0.00 0.00 100 1007.7
20260506071444 37 150 4.8 19.3 0.00 0.00 0.00 100 1007.7
20260506070944 37 156 6.4 19.3 0.00 0.00 0.00 100 1007.7
20260506070443 37 139 3.2 17.7 0.00 0.00 0.00 100 1007.7
20260506062213 37 149 8.0 14.5 0.00 0.00 0.00 100 1007.8
20260506061442 37 127 6.4 12.9 0.00 0.00 0.00 100 1007.9
20260506060942 37 123 0.0 19.3 0.00 0.00 0.00 100 1007.6
20260506060443 37 149 6.4 19.3 0.00 0.00 0.00 100 1007.5
20260506050914 37 170 6.4 11.3 0.00 0.00 0.00 100 1007.7
20260506050414 37 109 1.6 9.7 0.00 0.00 0.00 100 1007.7
20260506044859 37 137 3.2 9.7 0.00 0.00 0.00 100 1007.7
20260506044357 37 135 0.0 9.7 0.00 0.00 0.00 100 1007.6
20260506044128 37 189 0.0 11.3 0.00 0.00 0.00 100 1007.6
20260506043354 37 118 6.4 12.9 0.00 0.00 0.00 100 1007.7
20260506042850 37 170 6.4 12.9 0.00 0.00 0.00 100 1007.7
20260506042345 37 146 0.0 14.5 0.00 0.00 0.00 100 1007.7
20260506041840 37 136 4.8 14.5 0.00 0.00 0.00 100 1007.6
20260506041336 37 133 0.0 9.7 0.00 0.00 0.00 100 1007.6
20260506041323 37 130 3.2 9.7 0.00 0.00 0.00 100 1007.6
20260506040321 37 168 0.0 12.9 0.00 0.00 0.00 100 1007.5
20260506035821 37 154 4.8 12.9 0.00 0.00 0.00 100 1007.5
20260506035321 37 194 6.4 11.3 0.00 0.00 0.00 100 1007.5
20260506034822 37 143 3.2 16.1 0.00 0.00 0.00 100 1007.4
20260506034304 37 147 8.0 16.1 0.00 0.00 0.00 100 1007.3
20260506034035 37 109 6.4 9.7 0.00 0.00 0.00 100 1007.2
20260506033304 37 127 3.2 12.9 0.00 0.00 0.00 100 1007.4
20260506032805 38 143 4.8 14.5 0.00 0.00 0.00 100 1007.4
20260506032255 37 150 0.0 14.5 0.00 0.00 0.00 100 1007.3
20260506031750 38 191 3.2 14.5 0.00 0.00 0.00 100 1007.3
20260506031250 38 158 8.0 14.5 0.00 0.00 0.00 100 1007.2
20260506030750 38 129 1.6 11.3 0.00 0.00 0.00 100 1007.2
20260506030517 38 149 0.0 11.3 0.00 0.00 0.00 100 1007.1
20260506025744 38 127 1.6 9.7 0.00 0.00 0.00 100 1007.1
20260506025244 38 163 0.0 9.7 0.00 0.00 0.00 100 1006.9
20260506024743 38 106 0.0 4.8 0.00 0.00 0.00 100 1006.8
20260506024243 38 106 0.0 0.0 0.00 0.00 0.00 100 1006.7
20260506023739 38 106 0.0 0.0 0.00 0.00 0.00 100 1006.7
20260506023229 38 106 0.0 1.6 0.00 0.00 0.00 100 1006.5
20260506022718 38 106 0.0 4.8 0.00 0.00 0.00 100 1006.3
20260506022217 38 106 0.0 4.8 0.00 0.00 0.00 100 1006.2
20260506021718 38 140 0.0 0.0 0.00 0.00 0.00 100 1006.2
20260506021214 38 140 0.0 0.0 0.00 0.00 0.00 100 1006.1
20260506020712 38 140 0.0 1.6 0.00 0.00 0.00 100 1006.1
20260506020213 38 140 0.0 6.4 0.00 0.00 0.00 100 1005.8
20260506015713 38 140 1.6 6.4 0.00 0.00 0.00 100 1005.7
20260506015208 38 156 0.0 4.8 0.00 0.00 0.00 100 1005.6
20260506014703 38 167 0.0 8.0 0.00 0.00 0.00 100 1005.7
20260506014201 38 167 1.6 8.0 0.00 0.00 0.00 100 1005.6
20260506013918 38 147 0.0 0.0 0.00 0.00 0.00 100 1005.6
20260506013123 38 147 0.0 0.0 0.00 0.00 0.00 100 1005.6
20260506012616 38 147 0.0 8.0 0.00 0.00 0.00 100 1005.6
20260506012111 38 147 0.0 8.0 0.00 0.00 0.00 100 1005.5
20260506011556 38 125 0.0 8.0 0.00 0.00 0.00 100 1005.5
20260506011056 38 151 4.8 8.0 0.00 0.00 0.00 100 1005.6
20260506010554 38 153 0.0 0.0 0.00 0.00 0.00 100 1005.6
20260506010049 38 153 0.0 0.0 0.00 0.00 0.00 100 1005.6
20260506005535 38 153 0.0 0.0 0.00 0.00 0.00 100 1005.6
20260506005034 38 153 0.0 0.0 0.00 0.00 0.00 100 1005.6
20260506004535 38 153 0.0 0.0 0.00 0.00 0.00 100 1005.5
20260506004033 38 153 0.0 0.0 0.00 0.00 0.00 100 1005.6
20260506003534 38 153 0.0 0.0 0.00 0.00 0.00 100 1005.6
20260506003019 38 153 0.0 9.7 0.00 0.00 0.00 100 1005.5
20260506002514 38 153 0.0 9.7 0.00 0.00 0.00 100 1005.5
20260506002245 38 102 0.0 3.2 0.00 0.00 0.00 100 1005.6
20260506001503 38 119 0.0 3.2 0.00 0.00 0.00 100 1005.6
20260506001003 38 119 0.0 6.4 0.00 0.00 0.00 100 1005.5
20260506000455 38 119 0.0 9.7 0.00 0.00 0.00 100 1005.5
20260505235943 38 160 1.6 9.7 0.00 0.00 0.00 100 1005.5
20260505235443 38 102 3.2 9.7 0.00 0.00 0.00 100 1005.4
20260505235149 38 161 1.6 14.5 0.00 0.00 0.00 100 1005.3
20260505234404 38 205 6.4 16.1 0.00 0.00 0.00 100 1005.2
20260505234135 38 167 6.4 16.1 0.00 0.00 0.00 100 1005.1
20260505233635 38 201 9.7 16.1 0.00 0.00 0.00 100 1005.1
20260505232904 38 158 8.0 17.7 0.00 0.00 0.00 100 1005.1
20260505232402 38 177 9.7 17.7 0.00 0.00 0.00 100 1005.2
20260505231902 38 216 3.2 14.5 0.00 0.00 0.00 100 1005.2
20260505231402 38 168 8.0 16.1 0.00 0.00 0.00 100 1005.1
20260505230901 39 178 8.0 19.3 0.00 0.00 0.00 100 1005.1
20260505230400 38 208 6.4 19.3 0.00 0.00 0.00 100 1005.1
20260505230130 39 156 3.2 14.5 0.00 0.00 0.00 100 1005.1
20260505225402 39 180 3.2 17.7 0.00 0.00 0.00 100 1004.9
20260505225358 39 139 6.4 16.1 0.00 0.00 0.00 100 1005.0
20260505224356 39 160 4.8 17.7 0.00 0.00 0.00 100 1005.0
20260505223853 39 201 4.8 14.5 0.00 0.00 0.00 100 1004.9
20260505223353 39 160 8.0 16.1 0.00 0.00 0.00 100 1004.9
20260505222853 39 170 9.7 16.1 0.00 0.00 0.00 100 1004.9
20260505222353 39 182 6.4 22.5 0.00 0.00 0.00 100 1004.8
20260505221853 39 195 6.4 22.5 0.00 0.00 0.00 100 1004.9
20260505221353 39 217 8.0 17.7 0.00 0.00 0.00 100 1005.0
20260505220852 39 191 8.0 17.7 0.00 0.00 0.00 100 1005.0
20260505220353 39 156 4.8 16.1 0.00 0.00 0.00 100 1005.0
20260505215857 39 203 0.0 16.1 0.00 0.00 0.00 100 1005.0
20260505215851 38 157 8.0 16.1 0.00 0.00 0.00 100 1005.0
20260505215121 39 198 6.4 17.7 0.00 0.00 0.00 100 1005.1
20260505214348 39 129 8.0 17.7 0.00 0.00 0.00 100 1005.3
20260505213848 39 167 9.7 17.7 0.00 0.00 0.00 100 1005.4
20260505213348 39 118 6.4 16.1 0.00 0.00 0.00 100 1005.3
20260505212848 39 150 4.8 16.1 0.00 0.00 0.00 100 1005.2
20260505212347 38 150 8.0 16.1 0.00 0.00 0.00 100 1005.4
20260505212117 38 151 8.0 16.1 0.00 0.00 0.00 100 1005.5
20260505211346 39 210 8.0 16.1 0.00 0.00 0.00 100 1005.5
20260505210846 39 171 9.7 16.1 0.00 0.00 0.00 100 1005.4
20260505210346 38 143 6.4 20.9 0.00 0.00 0.00 100 1005.3
20260505205844 39 175 9.7 20.9 0.00 0.00 0.00 100 1005.6
20260505205344 39 142 11.3 19.3 0.00 0.00 0.00 100 1005.6
20260505204843 39 212 11.3 22.5 0.00 0.00 0.00 100 1005.6
20260505204616 39 233 9.7 22.5 0.00 0.00 0.00 100 1005.6
20260505203843 38 150 8.0 20.9 0.00 0.00 0.00 100 1005.6
20260505203342 39 135 8.0 14.5 0.00 0.00 0.00 100 1005.8
20260505202842 38 187 6.4 16.1 0.00 0.00 0.00 100 1005.9
20260505202615 38 136 8.0 16.1 0.00 0.00 0.00 100 1006.0
20260505201844 38 133 8.0 16.1 0.00 0.00 0.00 100 1006.1
20260505201345 38 147 4.8 17.7 0.00 0.00 0.00 100 1006.2
20260505200844 38 177 9.7 19.3 0.00 0.00 0.00 100 1006.3
20260505200344 38 153 11.3 19.3 0.00 0.00 0.00 100 1006.3
20260505195844 38 140 8.0 14.5 0.00 0.00 0.00 100 1006.5
20260505195344 38 150 8.0 19.3 0.00 0.00 0.00 100 1006.3
20260505194344 38 177 9.7 16.1 0.00 0.00 0.00 100 1006.6
20260505193844 38 184 9.7 16.1 0.00 0.00 0.00 100 1006.7
20260505193344 38 192 6.4 14.5 0.00 0.00 0.00 100 1006.8
20260505192843 38 198 3.2 20.9 0.00 0.00 0.00 100 1006.8
20260505192344 38 154 8.0 20.9 0.00 0.00 0.00 100 1006.8
20260505191844 38 140 9.7 12.9 0.00 0.00 0.00 100 1006.8
20260505191616 38 177 4.8 17.7 0.00 0.00 0.00 100 1006.8
20260505190845 38 189 9.7 17.7 0.00 0.00 0.00 100 1006.9
20260505185843 37 142 8.0 17.7 0.00 0.00 0.00 100 1006.9
20260505185613 38 202 9.7 19.3 0.00 0.00 0.00 100 1006.9
20260505184844 37 168 6.4 19.3 0.00 0.00 0.00 100 1007.1
20260505184342 37 196 9.7 14.5 0.00 0.00 0.00 100 1007.2
20260505183843 37 132 6.4 19.3 0.00 0.00 0.00 100 1007.3
20260505183343 37 180 1.6 19.3 0.00 0.00 0.00 100 1007.4
20260505182843 37 209 8.0 19.3 0.00 0.00 0.00 100 1007.5
20260505182343 36 150 0.0 19.3 0.00 0.00 0.00 100 1007.6
20260505181843 36 139 11.3 17.7 0.00 0.00 0.00 100 1007.6
20260505181343 36 201 9.7 17.7 0.00 0.00 0.00 100 1007.7
20260505180845 36 174 6.4 17.7 0.00 0.00 0.00 100 1007.7
20260505180345 36 143 8.0 16.1 0.00 0.00 0.00 100 1007.8
20260505175844 36 137 6.4 16.1 0.00 0.00 0.00 100 1007.8
20260505175344 36 225 6.4 16.1 0.00 0.00 0.00 100 1007.9
20260505174844 36 140 8.0 19.3 0.00 0.00 0.00 100 1008.0
20260505174345 36 248 4.8 19.3 0.00 0.00 0.00 100 1007.9
20260505173844 36 264 9.7 20.9 0.00 0.00 0.00 100 1008.0
20260505173344 36 177 11.3 20.9 0.00 0.00 0.00 100 1008.0
20260505172844 36 160 8.0 17.7 0.00 0.00 0.00 100 1008.0
20260505172343 36 192 9.7 17.7 0.00 0.00 0.00 100 1008.1
20260505171842 36 125 9.7 19.3 0.00 0.00 0.00 100 1008.2
20260505171342 36 213 11.3 19.3 0.00 0.00 0.00 100 1008.1
20260505170842 35 174 6.4 14.5 0.00 0.00 0.00 100 1008.1
20260505170342 35 168 4.8 12.9 0.00 0.00 0.00 100 1008.2
20260505165843 35 215 6.4 14.5 0.00 0.00 0.00 100 1008.2
20260505165343 35 168 9.7 14.5 0.00 0.00 0.00 100 1008.2
20260505164843 35 153 6.4 14.5 0.00 0.00 0.00 100 1008.2
20260505164614 35 180 4.8 14.5 0.00 0.00 0.00 100 1008.2
20260505163844 35 175 6.4 14.5 0.00 0.00 0.00 100 1008.2
20260505163344 35 210 8.0 17.7 0.00 0.00 0.00 100 1008.2
20260505163115 35 219 8.0 17.7 0.00 0.00 0.00 100 1008.0
20260505162344 35 119 8.0 19.3 0.00 0.00 0.00 100 1008.0
20260505161844 35 216 8.0 19.3 0.00 0.00 0.00 100 1008.1
20260505161344 35 201 9.7 17.7 0.00 0.00 0.00 100 1008.2
20260505160844 34 187 8.0 17.7 0.00 0.00 0.00 100 1008.1
20260505160344 34 205 8.0 17.7 0.00 0.00 0.00 100 1008.1
20260505152844 33 217 3.2 14.5 0.00 0.00 0.00 100 1008.2
20260505152344 33 158 0.0 14.5 0.00 0.00 0.00 100 1008.2
20260505151844 33 202 3.2 14.5 0.00 0.00 0.00 100 1008.1
20260505151344 33 202 4.8 16.1 0.00 0.00 0.00 100 1008.0
20260505150845 33 147 4.8 19.3 0.00 0.00 0.00 100 1008.0
20260505140321 33 174 1.6 16.1 0.00 0.00 0.00 100 1007.5
20260505130256 33 175 0.0 17.7 0.00 0.00 0.00 100 1007.1
20260505124744 33 202 1.6 16.1 0.00 0.00 0.00 100 1006.9
20260505124244 33 182 8.0 14.5 0.00 0.00 0.00 100 1006.8
20260505123743 32 153 6.4 16.1 0.00 0.00 0.00 100 1006.8
20260505123243 32 154 8.0 16.1 0.00 0.00 0.00 100 1006.7
20260505122742 32 153 6.4 14.5 0.00 0.00 0.00 100 1006.6
20260505122242 32 180 3.2 14.5 0.00 0.00 0.00 100 1006.6
20260505121743 32 157 8.0 16.1 0.00 0.00 0.00 100 1006.5
20260505121245 32 199 6.4 16.1 0.00 0.00 0.00 100 1006.3
20260505120744 32 127 6.4 14.5 0.00 0.00 0.00 100 1006.3
20260505120244 32 189 8.0 14.5 0.00 0.00 0.00 100 1006.2
20260505115744 32 232 4.8 12.9 0.00 0.00 0.00 100 1006.2
20260505115515 32 180 3.2 11.3 0.00 0.00 0.00 100 1006.1
20260505114744 32 191 0.0 14.5 0.00 0.00 0.00 100 1006.1
20260505114515 32 184 6.4 16.1 0.00 0.00 0.00 100 1006.2
20260505113748 32 202 6.4 14.5 0.00 0.00 0.00 100 1006.2
20260505113744 32 144 8.0 16.1 0.00 0.00 0.00 100 1006.2
20260505112745 32 158 9.7 16.1 0.00 0.00 0.00 100 1006.2
20260505112244 32 136 1.6 16.1 0.00 0.00 0.00 100 1006.3
20260505111744 32 181 6.4 14.5 0.00 0.00 0.00 100 1006.1
20260505111244 32 164 8.0 16.1 0.00 0.00 0.00 100 1006.1
20260505110745 32 194 8.0 20.9 0.00 0.00 0.00 100 1006.2
20260505110244 32 185 6.4 20.9 0.00 0.00 0.00 100 1006.3